Weather History for Beaufort, SC

Change the Weather History Date:

Tuesday, December 3, 2013

  Actual Average (KNBC) Record (KNBC)
Temperature  
Mean Temperature 54 °F -  
Max Temperature 64 °F 64 °F 80 °F (1998)
Min Temperature 44 °F 44 °F 22 °F (1944)
Degree Days  
Heating Degree Days 11    
Growing Degree Days 4 (Base 50)    
Moisture  
Dew Point 54 °F    
Average Humidity 93    
Maximum Humidity 100    
Minimum Humidity 73    
Precipitation  
Precipitation 0.00 in - - ()
Sea Level Pressure  
Sea Level Pressure 29.94 in    
Wind  
Wind Speed 1 mph (SSW)    
Max Wind Speed 7 mph    
Max Gust Speed -    
Visibility 8 miles    
Events Rain    
Averages and records for this station are not official NWS values.
T = Trace of Precipitation, MM = Missing Value Source: NWS Daily Summary

Daily Weather History Graph

Daily Weather History Graph

Search for Another Location

Airport:

Trip Planner

Search our weather history database for the weather conditions in past years. The results will help you decide how hot, cold, wet, or windy it might be!

Date:

Astronomy

Dec. 03, 2013 Rise Set
Actual Time 7:07 AM EST 5:16 PM EST
Civil Twilight 6:41 AM EST 5:43 PM EST
Nautical Twilight 6:10 AM EST 6:14 PM EST
Astronomical Twilight 5:40 AM EST 6:43 PM EST
Moon 7:37 AM EST (12/3) 6:17 PM EST (12/3)
Length of Visible Light 11h 02m
Length of Day
10h 08m
New Moon, 1% of the Moon is Illuminated
Dec 3
New Moon
Dec 9
First Quarter
Dec 17
Full
Dec 25
Last Quarter
Jan 1
New

Hourly Weather History & Observations

Time (EST) Temp. Dew Point Humidity Pressure Visibility Wind Dir Wind Speed Gust Speed Precip Events Conditions
12:15 AM 46.4 °F 46.4 °F 100% 29.90 in 7.0 mi Calm Calm - N/A   Clear
12:35 AM 46.4 °F 46.4 °F 100% 29.91 in 7.0 mi Calm Calm - N/A   Clear
12:55 AM 46.4 °F 46.4 °F 100% 29.90 in 5.0 mi Calm Calm - N/A   Clear
1:15 AM 46.4 °F 46.4 °F 100% 29.90 in 5.0 mi Calm Calm - N/A   Clear
1:35 AM 46.4 °F 46.4 °F 100% 29.90 in 4.0 mi Calm Calm - N/A   Clear
1:55 AM 46.4 °F 46.4 °F 100% 29.91 in 10.0 mi Calm Calm - N/A   Clear
2:15 AM 46.4 °F 46.4 °F 100% 29.91 in 10.0 mi Calm Calm - N/A   Clear
2:35 AM 44.6 °F 44.6 °F 100% 29.91 in 4.0 mi Calm Calm - N/A   Scattered Clouds
2:55 AM 46.4 °F 46.4 °F 100% 29.91 in 10.0 mi Calm Calm - N/A   Overcast
3:15 AM 46.4 °F 46.4 °F 100% 29.90 in 10.0 mi Calm Calm - N/A   Overcast
3:35 AM 46.4 °F 46.4 °F 100% 29.90 in 10.0 mi Calm Calm - N/A   Overcast
3:55 AM 46.4 °F 46.4 °F 100% 29.89 in 10.0 mi Calm Calm - N/A   Overcast
4:15 AM 48.2 °F 48.2 °F 100% 29.90 in 7.0 mi Calm Calm - N/A   Overcast
4:35 AM 48.2 °F 48.2 °F 100% 29.89 in 7.0 mi Calm Calm - N/A   Overcast
4:55 AM 48.2 °F 48.2 °F 100% 29.89 in 7.0 mi Calm Calm - N/A   Overcast
5:15 AM 50.0 °F 50.0 °F 100% 29.89 in 7.0 mi Calm Calm - N/A   Overcast
5:35 AM 50.0 °F 50.0 °F 100% 29.91 in 7.0 mi Calm Calm - N/A   Overcast
5:55 AM 50.0 °F 50.0 °F 100% 29.92 in 10.0 mi Calm Calm - N/A   Overcast
6:15 AM 50.0 °F 50.0 °F 100% 29.93 in 10.0 mi Calm Calm - N/A   Overcast
6:35 AM 50.0 °F 50.0 °F 100% 29.94 in 5.0 mi West 3.5 mph - N/A   Mostly Cloudy
6:55 AM 50.0 °F 50.0 °F 100% 29.94 in 5.0 mi Calm Calm - N/A   Mostly Cloudy
7:15 AM 50.0 °F 50.0 °F 100% 29.94 in 4.0 mi Calm Calm - N/A   Mostly Cloudy
7:35 AM 48.2 °F 48.2 °F 100% 29.94 in 5.0 mi Calm Calm - N/A   Overcast
7:55 AM 50.0 °F 50.0 °F 100% 29.95 in 5.0 mi Calm Calm - N/A   Scattered Clouds
8:15 AM 50.0 °F 50.0 °F 100% 29.95 in 10.0 mi Calm Calm - N/A   Scattered Clouds
8:35 AM 51.8 °F 51.8 °F 100% 29.96 in 5.0 mi Calm Calm - N/A   Clear
8:55 AM 53.6 °F 53.6 °F 100% 29.96 in 10.0 mi Calm Calm - N/A   Clear
9:15 AM 55.4 °F 55.4 °F 100% 29.97 in 10.0 mi Calm Calm - N/A   Clear
9:35 AM 57.2 °F 53.6 °F 88% 29.98 in 10.0 mi Calm Calm - N/A   Clear
9:55 AM 59.0 °F 55.4 °F 88% 29.98 in 10.0 mi Calm Calm - N/A   Scattered Clouds
10:15 AM 60.8 °F 55.4 °F 82% 29.98 in 10.0 mi Calm Calm - N/A   Scattered Clouds
10:35 AM 62.6 °F 55.4 °F 77% 29.99 in 7.0 mi Calm Calm - N/A   Scattered Clouds
10:55 AM 62.6 °F 55.4 °F 77% 29.98 in 10.0 mi SSW 4.6 mph - N/A   Clear
11:15 AM 62.6 °F 55.4 °F 77% 29.98 in 10.0 mi South 5.8 mph - N/A   Scattered Clouds
11:35 AM 64.4 °F 55.4 °F 73% 29.98 in 7.0 mi Calm Calm - N/A   Scattered Clouds
11:55 AM 62.6 °F 55.4 °F 77% 29.97 in 7.0 mi SSW 3.5 mph - N/A   Scattered Clouds
12:15 PM 64.4 °F 55.4 °F 73% 29.96 in 7.0 mi SSW 4.6 mph - N/A   Scattered Clouds
12:35 PM 64.4 °F 55.4 °F 73% 29.96 in 10.0 mi SSW 5.8 mph - N/A   Scattered Clouds
12:55 PM 64.4 °F 55.4 °F 73% 29.95 in 10.0 mi SSW 4.6 mph - N/A   Scattered Clouds
1:15 PM 62.6 °F 55.4 °F 77% 29.94 in 10.0 mi SSW 4.6 mph - N/A   Mostly Cloudy
1:35 PM 62.6 °F 55.4 °F 77% 29.93 in 10.0 mi South 3.5 mph - N/A   Overcast
1:55 PM 62.6 °F 55.4 °F 77% 29.93 in 10.0 mi South 5.8 mph - N/A   Mostly Cloudy
2:15 PM 62.6 °F 55.4 °F 77% 29.93 in 10.0 mi South 6.9 mph - N/A   Mostly Cloudy
2:35 PM 62.6 °F 55.4 °F 77% 29.92 in 10.0 mi South 5.8 mph - N/A   Mostly Cloudy
2:55 PM 62.6 °F 55.4 °F 77% 29.92 in 10.0 mi South 6.9 mph - N/A   Mostly Cloudy
3:15 PM 62.6 °F 55.4 °F 77% 29.92 in 10.0 mi SSW 5.8 mph - N/A   Mostly Cloudy
3:35 PM 62.6 °F 57.2 °F 82% 29.93 in 10.0 mi South 6.9 mph - N/A   Mostly Cloudy
3:55 PM 62.6 °F 57.2 °F 82% 29.93 in 10.0 mi South 4.6 mph - N/A   Overcast
4:15 PM 62.6 °F 57.2 °F 82% 29.93 in 10.0 mi South 4.6 mph - N/A   Overcast
4:35 PM 60.8 °F 57.2 °F 88% 29.94 in 10.0 mi Calm Calm - N/A   Overcast
4:55 PM 60.8 °F 57.2 °F 88% 29.94 in 10.0 mi Calm Calm - N/A   Overcast
5:15 PM 60.8 °F 57.2 °F 88% 29.94 in 10.0 mi Calm Calm - N/A   Overcast
5:35 PM 60.8 °F 57.2 °F 88% 29.95 in 10.0 mi Calm Calm - N/A   Mostly Cloudy
5:55 PM 60.8 °F 57.2 °F 88% 29.95 in 10.0 mi Calm Calm - N/A   Mostly Cloudy
6:15 PM 60.8 °F 59.0 °F 94% 29.95 in 10.0 mi Calm Calm - N/A   Mostly Cloudy
6:35 PM 59.0 °F 59.0 °F 100% 29.96 in 10.0 mi Calm Calm - N/A   Overcast
6:55 PM 59.0 °F 59.0 °F 100% 29.96 in 7.0 mi Calm Calm - N/A   Overcast
7:15 PM 59.0 °F 59.0 °F 100% 29.97 in 7.0 mi Calm Calm - N/A   Overcast
7:35 PM 59.0 °F 59.0 °F 100% 29.97 in 10.0 mi Calm Calm - N/A   Mostly Cloudy
7:55 PM 59.0 °F 59.0 °F 100% 29.97 in 7.0 mi Calm Calm - N/A   Light Drizzle
8:15 PM 57.2 °F 57.2 °F 100% 29.98 in 7.0 mi Calm Calm - N/A Rain Light Rain
8:35 PM 57.2 °F 57.2 °F 100% 29.98 in 7.0 mi Calm Calm - N/A Rain Light Rain
8:55 PM 57.2 °F 57.2 °F 100% 29.98 in 5.0 mi Calm Calm - N/A   Mostly Cloudy
9:15 PM 55.4 °F 55.4 °F 100% 29.98 in 5.0 mi Calm Calm - N/A   Overcast
9:35 PM 55.4 °F 55.4 °F 100% 29.98 in 7.0 mi Calm Calm - N/A   Overcast
9:55 PM 57.2 °F 57.2 °F 100% 29.98 in 7.0 mi Calm Calm - N/A   Overcast
10:15 PM 57.2 °F 57.2 °F 100% 29.98 in 7.0 mi Calm Calm - N/A   Mostly Cloudy
10:35 PM 57.2 °F 57.2 °F 100% 29.97 in 7.0 mi Calm Calm - N/A   Mostly Cloudy
10:55 PM 59.0 °F 59.0 °F 100% 29.97 in 10.0 mi Calm Calm - N/A   Overcast
11:15 PM 59.0 °F 59.0 °F 100% 29.98 in 10.0 mi Calm Calm - N/A   Overcast
11:35 PM 59.0 °F 59.0 °F 100% 29.97 in 10.0 mi Calm Calm - N/A   Overcast
11:55 PM 59.0 °F 59.0 °F 100% 29.97 in 7.0 mi Calm Calm - N/A   Mostly Cloudy